Dauntless Aviation
Greetings, Guest! To participate, [sign up for a free account] or [log in]
Airports Europe Czech Republic
LKPO
PRV

Prerov

Prerov, CZECH REPUBLIC

Airport Info
Edit

Location

Latitude / Longitude: 49°25'32"N / 17°24'16"E
  49°25.548'N / 17°24.282'E
  49.4258 / 17.4047

Nearby radio navigation aids

CK PREROV NDB. 63.6° 2.8nm from CK to field.

Runway Information

Runway 06 /24

Dimensions: 8202 x 196 ft.
Surface: ASP
 
Runway 06
Runway 24
Latitude: 49.421419 49.430439
Longitude: 17.389275 17.420478
Elevation: 663 ft. 663 ft.
Runway true heading: 64.6 244.6
 

Instrument Procedures

  Aerodrome Chart
  Aerodrome Chart

IAPs (Instrument Approach Procedures)

  Aerodrome Information (Textual)
  Visual Operations Chart
  POLOM 3A
  ILS/DME Rwy 06
  NDB/DME (GPS) or PAR Rwy 06
  NDB (GPS) or PAR Rwy 06

Departure Procedures

  Instrument Departure Chart HLV 1A - 2Z
  Instrument Departure Chart LUTIM 2A - 2Z
  Instrument Departure Chart MORKO 2Z
  Instrument Departure Chart POLOM 3A
Satellite photo at:
Airport distance calculator
From:
Weather Reports

METAR

LKMT
31.3nm NE
LKMT 300230Z VRB01KT 9000 NSC 16/15 Q1008 TEMPO 3500 BR
LKTB
33.3nm SW
LKTB 300230Z 07007KT 9000 NSC 18/17 Q1007 NOSIG

TAF

LKMT
31.3nm NE
TAF LKMT 292300Z 3000/3106 19006KT CAVOK TEMPO 3003/3007 3000 BR SCT010 BECMG 3007/3009 22010KT 9999 BKN030 TEMPO 3009/3106 8000 SHRA SCT025TCU PROB40 TEMPO 3010/3020 4000 TSRA SCT020CB BKN027
LKTB
33.3nm SW
TAF LKTB 292300Z 3000/3106 12006KT CAVOK TEMPO 3003/3007 3000 BR SCT013 BECMG 3007/3009 17010KT 9999 BKN030 TEMPO 3009/3106 8000 SHRA SCT025TCU PROB40 TEMPO 3010/3020 4000 TSRA SCT020CB BKN027
Safelog

 

Dauntless Aviation

© 2007-2014 Dauntless Aviation, all rights reserved
Information provided via PilotNav comes from a variety of official and unofficial data sources. As errors are possible, do not use PilotNav for primary flight planning purposes. Verify any information that you receive via PilotNav with current and canonical charts and other official documents. The material in this database is subject to database copyrights held by Dauntless Aviation and may not be copied without the express permission of Dauntless Aviation - licenses for use of part of all of this data are available for purchase; enquire via the Dauntless Aviation helpdesk. A number of mechanisms and markers exist in the database to protect against and identify infringement / copyright. Automated queries against this website are stictly prohibited, and all activity is logged and analyzed.